When you browse on this site, cookies collect data to enhance your experience and personalize the content and advertising you see.
Visit our Privacy Policy to learn more. By continuing to use the site, you agree to this use of cookies and data.
  • în România
  • Lista ţărilor
  • Pe 7 zile
  • Temperatura apei
  • Hartă satelitară
  • Meteo pe hartă
  • Widget-uri
  • user-avatar
    Intrare

    Meteo pe oră la Wronin

    Astăzi, 9 Decembrie, Duminică

    Timp Temperatura Precipitaţii Vânt Presiune Umiditate
    00:00 +1°C° 0 mm 4 m/s 731 mmHg 79%
    01:00 +1°C° 0 mm 4 m/s 730 mmHg 81%
    02:00 +1°C° 0 mm 4 m/s 730 mmHg 82%
    03:00 +1°C° 0 mm 4 m/s 729 mmHg 83%
    04:00 +1°C° 0 mm 4 m/s 729 mmHg 83%
    05:00 +1°C° 0.1 mm 4 m/s 728 mmHg 82%
    06:00 +1°C° 0.1 mm 5 m/s 727 mmHg 81%
    07:00 +1°C° 0 mm 4 m/s 726 mmHg 82%
    08:00 +1°C° 0.6 mm 4 m/s 726 mmHg 79%
    09:00 +2°C° 0.6 mm 5 m/s 725 mmHg 75%
    10:00 +3°C° 0.6 mm 6 m/s 725 mmHg 71%
    11:00 +4°C° 0.2 mm 6 m/s 725 mmHg 70%
    12:00 +4°C° 0.2 mm 7 m/s 725 mmHg 69%
    13:00 +6°C° 0 mm 5 m/s 724 mmHg 69%
    14:00 +5°C° 0.3 mm 5 m/s 725 mmHg 72%
    15:00 +5°C° 0.3 mm 5 m/s 725 mmHg 75%
    16:00 +3°C° 0.3 mm 5 m/s 725 mmHg 79%
    17:00 +3°C° 0.1 mm 5 m/s 725 mmHg 80%
    18:00 +3°C° 0.1 mm 5 m/s 725 mmHg 80%
    19:00 +3°C° 0.1 mm 5 m/s 726 mmHg 81%
    20:00 +4°C° 0.1 mm 4 m/s 726 mmHg 82%
    21:00 +4°C° 0.1 mm 4 m/s 726 mmHg 83%
    22:00 +4°C° 0.1 mm 4 m/s 726 mmHg 83%
    23:00 +4°C° 0.1 mm 4 m/s 727 mmHg 84%

    Mâine, 10 Decembrie, Luni

    Timp Temperatura Precipitaţii Vânt Presiune Umiditate
    00:00 +4°C° 0.1 mm 4 m/s 727 mmHg 84%
    01:00 +3°C° 0.1 mm 4 m/s 727 mmHg 85%
    02:00 +3°C° 0.3 mm 5 m/s 727 mmHg 84%
    03:00 +3°C° 0.3 mm 5 m/s 727 mmHg 84%
    04:00 +3°C° 0.3 mm 5 m/s 727 mmHg 83%
    05:00 +2°C° 0.2 mm 6 m/s 728 mmHg 81%
    06:00 +2°C° 0.2 mm 6 m/s 728 mmHg 79%
    07:00 +2°C° 0.2 mm 7 m/s 728 mmHg 77%
    08:00 +2°C° 0.2 mm 7 m/s 729 mmHg 77%
    09:00 +2°C° 0.2 mm 7 m/s 729 mmHg 76%
    10:00 +2°C° 0.2 mm 7 m/s 730 mmHg 75%
    11:00 +2°C° 0.2 mm 7 m/s 730 mmHg 73%
    12:00 +2°C° 0.2 mm 7 m/s 731 mmHg 71%
    13:00 +2°C° 0.2 mm 6 m/s 731 mmHg 70%
    14:00 +2°C° 0.2 mm 6 m/s 731 mmHg 71%
    15:00 +1°C° 0.2 mm 5 m/s 732 mmHg 73%
    16:00 +1°C° 0.2 mm 5 m/s 732 mmHg 75%
    17:00 0°C° 0.1 mm 5 m/s 733 mmHg 77%
    18:00 0°C° 0.1 mm 4 m/s 733 mmHg 78%
    19:00 -1°C° 0.1 mm 4 m/s 733 mmHg 80%
    20:00 -1°C° 0 mm 4 m/s 733 mmHg 81%
    21:00 -1°C° 0 mm 4 m/s 733 mmHg 83%
    22:00 -2°C° 0 mm 4 m/s 733 mmHg 84%
    23:00 -2°C° 0 mm 4 m/s 733 mmHg 85%

    Poimâine, 11 Decembrie, Marţi

    Timp Temperatura Precipitaţii Vânt Presiune Umiditate
    00:00 -2°C° 0 mm 4 m/s 734 mmHg 85%
    01:00 -1°C° 0 mm 3 m/s 734 mmHg 86%
    02:00 -1°C° 0 mm 3 m/s 734 mmHg 86%
    03:00 -1°C° 0 mm 3 m/s 733 mmHg 86%
    04:00 -2°C° 0 mm 3 m/s 733 mmHg 87%
    05:00 -2°C° 0 mm 3 m/s 733 mmHg 87%
    06:00 -2°C° 0 mm 3 m/s 733 mmHg 87%
    07:00 -2°C° 0 mm 3 m/s 733 mmHg 87%
    08:00 -1°C° 0.1 mm 3 m/s 734 mmHg 84%
    09:00 -1°C° 0.1 mm 4 m/s 734 mmHg 81%
    10:00 0°C° 0.1 mm 4 m/s 734 mmHg 78%
    11:00 0°C° 0.2 mm 4 m/s 734 mmHg 78%
    12:00 0°C° 0.2 mm 4 m/s 733 mmHg 78%
    13:00 +1°C° 0.2 mm 4 m/s 733 mmHg 77%
    14:00 +1°C° 0.2 mm 3 m/s 733 mmHg 80%
    15:00 +1°C° 0.2 mm 3 m/s 733 mmHg 83%
    16:00 +1°C° 0.2 mm 2 m/s 734 mmHg 85%
    17:00 +1°C° 0.3 mm 2 m/s 734 mmHg 86%
    18:00 +1°C° 0.3 mm 2 m/s 734 mmHg 87%
    19:00 +1°C° 0.3 mm 2 m/s 734 mmHg 88%
    20:00 +1°C° 0.2 mm 2 m/s 734 mmHg 89%
    21:00 +1°C° 0.2 mm 2 m/s 734 mmHg 91%
    22:00 -1°C° 0.2 mm 2 m/s 735 mmHg 92%
    23:00 +1°C° 0.1 mm 1 m/s 735 mmHg 92%

    12 Decembrie, Miercuri

    Timp Temperatura Precipitaţii Vânt Presiune Umiditate
    00:00 +1°C° 0.1 mm 1 m/s 735 mmHg 93%
    01:00 +1°C° 0.1 mm 1 m/s 735 mmHg 93%
    02:00 +1°C° 0.1 mm 1 m/s 736 mmHg 93%
    03:00 +1°C° 0.1 mm 1 m/s 736 mmHg 93%
    04:00 +1°C° 0.1 mm 1 m/s 736 mmHg 93%
    05:00 +1°C° 0.1 mm 1 m/s 736 mmHg 94%
    06:00 +1°C° 0.1 mm 1 m/s 737 mmHg 94%
    07:00 +1°C° 0.1 mm 1 m/s 737 mmHg 94%
    08:00 +1°C° 0.1 mm 1 m/s 738 mmHg 93%
    09:00 +2°C° 0.1 mm 1 m/s 738 mmHg 92%
    10:00 +2°C° 0.1 mm 1 m/s 738 mmHg 92%
    11:00 +2°C° 0 mm 1 m/s 738 mmHg 90%
    12:00 +2°C° 0 mm 1 m/s 739 mmHg 89%
    13:00 +3°C° 0 mm 1 m/s 739 mmHg 88%
    14:00 +2°C° 0.1 mm 1 m/s 739 mmHg 90%
    15:00 +2°C° 0.1 mm 1 m/s 739 mmHg 91%
    16:00 +1°C° 0.1 mm 1 m/s 739 mmHg 92%
    17:00 +1°C° 0 mm 1 m/s 740 mmHg 93%
    18:00 0°C° 0 mm 1 m/s 740 mmHg 94%
    19:00 0°C° 0 mm 1 m/s 740 mmHg 94%
    20:00 0°C° 0 mm 1 m/s 740 mmHg 94%
    21:00 0°C° 0 mm 1 m/s 740 mmHg 94%
    22:00 0°C° 0 mm 1 m/s 741 mmHg 94%
    23:00 0°C° 0 mm 1 m/s 741 mmHg 94%

    13 Decembrie, Joi

    Timp Temperatura Precipitaţii Vânt Presiune Umiditate
    00:00 0°C° 0 mm 1 m/s 741 mmHg 94%
    01:00 -1°C° 0 mm 1 m/s 741 mmHg 94%
    02:00 -1°C° 0 mm 1 m/s 741 mmHg 94%
    03:00 -1°C° 0 mm 1 m/s 741 mmHg 94%
    04:00 -1°C° 0 mm 1 m/s 741 mmHg 94%
    05:00 -1°C° 0 mm 1 m/s 741 mmHg 94%
    06:00 -1°C° 0 mm 1 m/s 740 mmHg 94%
    07:00 -1°C° 0 mm 1 m/s 740 mmHg 94%
    08:00 -2°C° 0 mm 2 m/s 740 mmHg 91%
    09:00 -2°C° 0 mm 2 m/s 740 mmHg 89%
    10:00 -1°C° 0 mm 2 m/s 741 mmHg 87%
    11:00 -1°C° 0 mm 2 m/s 740 mmHg 85%
    12:00 -1°C° 0 mm 2 m/s 740 mmHg 83%
    13:00 -1°C° 0 mm 2 m/s 740 mmHg 81%
    14:00 -1°C° 0 mm 2 m/s 740 mmHg 83%
    15:00 -2°C° 0 mm 2 m/s 739 mmHg 86%
    16:00 0°C° 0 mm 1 m/s 739 mmHg 88%
    17:00 0°C° 0 mm 1 m/s 739 mmHg 89%
    18:00 0°C° 0 mm 1 m/s 739 mmHg 89%
    19:00 -1°C° 0 mm 1 m/s 739 mmHg 90%
    20:00 -1°C° 0 mm 1 m/s 739 mmHg 91%
    21:00 -1°C° 0 mm 1 m/s 739 mmHg 91%
    22:00 -1°C° 0 mm 1 m/s 739 mmHg 92%
    23:00 -2°C° 0 mm 1 m/s 739 mmHg 92%

    14 Decembrie, Vineri

    Timp Temperatura Precipitaţii Vânt Presiune Umiditate
    00:00 -2°C° 0 mm 1 m/s 739 mmHg 92%
    01:00 -2°C° 0 mm 1 m/s 739 mmHg 92%
    02:00 -2°C° 0 mm 1 m/s 739 mmHg 92%
    03:00 -2°C° 0 mm 1 m/s 739 mmHg 91%
    04:00 -2°C° 0 mm 1 m/s 739 mmHg 91%
    05:00 -2°C° 0 mm 1 m/s 739 mmHg 91%
    06:00 -2°C° 0 mm 1 m/s 739 mmHg 91%
    07:00 -2°C° 0 mm 1 m/s 740 mmHg 90%
    08:00 -2°C° 0 mm 1 m/s 740 mmHg 89%
    09:00 -1°C° 0 mm 1 m/s 740 mmHg 87%
    10:00 -1°C° 0 mm 0 m/s 740 mmHg 85%
    11:00 -1°C° 0 mm 0 m/s 740 mmHg 84%
    12:00 -1°C° 0 mm 0 m/s 740 mmHg 83%
    13:00 0°C° 0 mm 0 m/s 740 mmHg 82%
    14:00 -1°C° 0 mm 0 m/s 740 mmHg 84%
    15:00 0°C° 0 mm 1 m/s 740 mmHg 87%
    16:00 -1°C° 0 mm 1 m/s 740 mmHg 90%
    17:00 -1°C° 0 mm 1 m/s 740 mmHg 91%
    18:00 -1°C° 0 mm 1 m/s 740 mmHg 91%
    19:00 -1°C° 0 mm 1 m/s 740 mmHg 92%
    20:00 -1°C° 0 mm 1 m/s 740 mmHg 92%
    21:00 -1°C° 0 mm 1 m/s 740 mmHg 92%
    22:00 -1°C° 0 mm 1 m/s 740 mmHg 92%
    23:00 -1°C° 0 mm 1 m/s 740 mmHg 92%
    Arată mai mult